This is the latest recevied weather packets stored in our database for station/object VA3BOO. If no packets are shown the sender has not sent any weather packets the latest 10 day(s).
| Time | Temp. | Humidity | Pressure | Rain* | Wind** | Luminosity | Snow |
|---|---|---|---|---|---|---|---|
| 1777090504 | 8.33° C | 46% | 1013.6 hPa | 0 mm | - | 0 W/m² | - |
| 1777090204 | 8.33° C | 47% | 1013.7 hPa | 0 mm | - | 0 W/m² | - |
| 1777089904 | 8.33° C | 48% | 1013.7 hPa | 0 mm | - | 0 W/m² | - |
| 1777089604 | 7.78° C | 49% | 1014 hPa | 0 mm | - | 0 W/m² | - |
| 1777089304 | 7.78° C | 50% | 1013.9 hPa | 0 mm | - | 0 W/m² | - |
| 1777089004 | 7.78° C | 50% | 1013.8 hPa | 0 mm | - | 0 W/m² | - |
| 1777088704 | 7.78° C | 51% | 1013.6 hPa | 0 mm | - | 0 W/m² | - |
| 1777088404 | 7.22° C | 51% | 1013.8 hPa | 0 mm | - | 0 W/m² | - |
| 1777088104 | 7.22° C | 52% | 1013.7 hPa | 0 mm | - | 0 W/m² | - |
| 1777087804 | 7.22° C | 52% | 1013.8 hPa | 0 mm | - | 0 W/m² | - |
| 1777087504 | 7.22° C | 51% | 1013.8 hPa | 0 mm | - | 0 W/m² | - |
| 1777087204 | 7.78° C | 49% | 1013.8 hPa | 0 mm | - | 0 W/m² | - |
| 1777086904 | 7.78° C | 49% | 1014 hPa | 0 mm | - | 0 W/m² | - |
| 1777086604 | 8.33° C | 48% | 1014 hPa | 0 mm | - | 0 W/m² | - |
| 1777086304 | 7.78° C | 49% | 1013.7 hPa | 0 mm | - | 0 W/m² | - |
| 1777086004 | 7.78° C | 49% | 1013.8 hPa | 0 mm | - | 0 W/m² | - |
| 1777085704 | 7.78° C | 49% | 1013.9 hPa | 0 mm | - | 0 W/m² | - |
| 1777085404 | 8.33° C | 47% | 1013.6 hPa | 0 mm | - | 0 W/m² | - |
| 1777085104 | 8.89° C | 46% | 1013.9 hPa | 0 mm | - | 0 W/m² | - |
| 1777084804 | 8.89° C | 45% | 1013.7 hPa | 0 mm | - | 0 W/m² | - |
| 1777084504 | 8.89° C | 45% | 1013.6 hPa | 0 mm | - | 0 W/m² | - |
| 1777084204 | 9.44° C | 44% | 1013.5 hPa | 0 mm | - | 0 W/m² | - |
| 1777083904 | 9.44° C | 43% | 1013.9 hPa | 0 mm | - | 0 W/m² | - |
| 1777083604 | 9.44° C | 43% | 1013.8 hPa | 0 mm | - | 0 W/m² | - |
| 1777083304 | 9.44° C | 42% | 1013.7 hPa | 0 mm | - | 0 W/m² | - |
* Rain latest hour (hover to see other rain measurements)
** Current wind speed in m/s (hover to see current wind gust speed)